VK2KGV-15 Weather Reports


time (UTC)temp
C
wind
direction
speed
KPH
gust
KPH
rain 1hr
cm
rain 24hr
cm
rain mn
cm
humidity
%
barometer
mb
20260505074506 17 91 0.0 0.0 0.00 0.00 0.15 88 1018.5
20260505073503 17 112 0.0 0.0 0.00 0.00 0.15 87 1018.4
20260505072500 17 45 0.0 0.0 0.00 0.00 0.15 87 1018.3
20260505065451 17 12 1.6 4.8 0.00 0.00 0.15 87 1018.5
20260505063444 18 45 0.0 0.0 0.00 0.00 0.13 85 1018.1
20260505061438 18 292 4.8 4.8 0.00 0.00 0.08 84 1018.2
20260505053426 20 293 0.0 0.0 0.00 0.00 0.00 69 1017.4
20260505051420 20 262 3.2 6.4 0.00 0.00 0.00 68 1017.2
20260505033348 23 294 1.6 3.2 0.00 0.00 0.00 52 1016.1
20260505031342 24 256 4.8 4.8 0.00 0.00 0.00 50 1016.0
20260505025336 23 282 3.2 9.7 0.00 0.00 0.00 52 1016.2
20260505015317 23 304 3.2 3.2 0.00 0.00 0.00 55 1017.0
20260505011305 22 284 3.2 6.4 0.00 0.00 0.00 57 1017.8
20260505005259 23 298 4.8 4.8 0.00 0.00 0.00 57 1017.8
20260504235240 23 112 1.6 4.8 0.00 0.00 0.00 57 1018.2
20260504233234 22 233 4.8 6.4 0.00 0.00 0.00 60 1018.5
20260504231228 21 238 3.2 6.4 0.00 0.00 0.00 64 1018.6
20260504223215 20 239 0.0 1.6 0.00 0.00 0.00 68 1019.0
20260504221209 18 112 1.6 1.6 0.00 0.00 0.00 67 1018.9
20260504215203 17 0 0.0 0.0 0.00 0.00 0.00 71 1019.2
20260504213156 16 0 0.0 0.0 0.00 0.00 0.00 72 1018.8
20260504211150 15 112 0.0 0.0 0.00 0.00 0.00 72 1019.0
20260504203138 15 315 0.0 0.0 0.00 0.00 0.00 72 1018.6
20260504195125 13 0 0.0 0.0 0.00 0.00 0.00 71 1018.5
20260504193119 13 0 0.0 0.0 0.00 0.00 0.00 72 1018.4
20260504185107 12 135 0.0 0.0 0.00 0.00 0.00 72 1017.9
20260504175048 11 0 0.0 0.0 0.00 0.00 0.00 75 1017.8
20260504174045 11 0 0.0 0.0 0.00 0.00 0.00 74 1017.8
20260504173042 11 0 0.0 0.0 0.00 0.00 0.00 74 1017.7
20260504171036 11 0 0.0 0.0 0.00 0.00 0.00 73 1017.6
20260504140940 12 180 0.0 0.0 0.00 0.00 0.00 64 1018.1